shoulder
new_line
new_line
first
second
third
Al di la della Luna; Beyond the Moon; Astrophotography; Astrofotografia; Danilo Pivato
 
 
         
         
2015

Orbital Elements

Epoch 2014 Dec. 9.0 TT = JDT 2457000.5
T 2014 Dec. 17.79004 TT                                                       MPCW
q   2.4753684            (2000.0)                            P                  Q
n   0.14362369     Peri.  167.74953       -0.09941246     -0.97613657
a   3.6112038      Node   287.71431     +0.89497772     -0.00291439
e   0.3145310      Incl.   11.69349     +0.43489313     -0.21713800
P   6.86
Return in the future: 2021
 
         
         
2015.02.18
2015.03.12
     
         
         
         
         
         
2008

Orbital Elements

Epoch 2008 Jan. 15.0 TT = JDT 2454480.5
T 2008 Feb. 3.4876 TT                                                               MPC
q   2.488461             (2000.0)                        P                      Q
n   0.1431129       Peri.   167.8003         -0.1008138        -0.9760447
a   3.619792        Node   287.7458        +0.8949472        -0.0043065
e   0.312540        Incl.       11.6795        +0.4346332       -0.2175276
P   6.89
Return in the future: 2014
         
         
2008.01.26
2008.02.06
         
         
         
         
         
         

 

       
 
Since: 01/01/2004
 
       
 
Since: 01/11/2010